sat.trackr.live / text

‹ back to catalog

IRIDE-MS2-HEO-2

NORAD 64569 · 2025-135AT

PAYLOAD ACTIVE UNKNOWN

§ Identity

Operator
Country
IT
Launch date
2025-06-23
Launch site
AFWTR
Launch vehicle
Mass (kg)
RCS (m²)

External: N2YO · Heavens-Above · Gunter

§ Orbital elements

Epoch: 2026-05-25T03:34:58.211040Z

Period
96.41 min
Inclination
97.7728°
Eccentricity
0.0003125
Mean motion
14.93554390 rev/d
Perigee alt
584.7 km
Apogee alt
589.0 km
Semi-major
6,965.0 km
B*
1.4572e-4
RAAN
259.6927°
Arg perigee
82.6767°
Mean anomaly
277.4808°
Rev number
5,044

§ Raw data

IRIDE-MS2-HEO-21 64569U 25135AT  26145.14928485  .00001479  00000+0  14572-3 0  99972 64569  97.7728 259.6927 0003125  82.6767 277.4808 14.93554390 50441

JSON: /api/v1/satellites/64569 · /tle

For live sub-satellite position, see the globe view (requires WebGL).

§ Visibility from observer

Set your observer location to see the next 7 days of passes ≥ 10°. The values pass through the URL so the page stays shareable.

No JS? Fill the form by hand. The geolocation button needs JavaScript.

§ Radio — SatNOGS DB

ModeDescriptionDownlinkUplink
FM Mode S - Transmitter 2.264 GHz

1 transmitter · refreshed weekly from db.satnogs.org